This is the latest recevied weather packets stored in our database for station/object KA6UPU-1. If no packets are shown the sender has not sent any weather packets the latest 10 day(s).
| Time | Temp. | Humidity | Pressure | Rain* | Wind** | Luminosity | Snow |
|---|---|---|---|---|---|---|---|
| 1788208716 | 20.56° C | 65% | 1013.6 hPa | 0 mm | - | - | - |
| 1788208416 | 20.56° C | 64% | 1013.5 hPa | 0 mm | - | - | - |
| 1788208117 | 20° C | 64% | 1013.6 hPa | 0 mm | - | - | - |
| 1788207816 | 20° C | 65% | 1013.5 hPa | 0 mm | - | - | - |
| 1788207516 | 20.56° C | 63% | 1013.5 hPa | 0 mm | - | - | - |
| 1788207218 | 20.56° C | 63% | 1013.3 hPa | 0 mm | - | - | - |
| 1788206853 | 20.56° C | 64% | 1013.4 hPa | 0 mm | - | - | - |
| 1788206554 | 20° C | 65% | 1013.4 hPa | 0 mm | - | - | - |
| 1788206253 | 20° C | 65% | 1013.4 hPa | 0 mm | - | - | - |
| 1788205653 | 19.44° C | 67% | 1013.6 hPa | 0 mm | - | - | - |
| 1788205353 | 19.44° C | 67% | 1013.6 hPa | 0 mm | - | - | - |
| 1788205053 | 19.44° C | 68% | 1013.6 hPa | 0 mm | - | - | - |
| 1788204753 | 18.89° C | 67% | 1013.6 hPa | 0 mm | - | - | - |
| 1788204453 | 18.89° C | 67% | 1013.7 hPa | 0 mm | - | - | - |
| 1788204153 | 19.44° C | 67% | 1013.6 hPa | 0 mm | - | - | - |
| 1788203853 | 19.44° C | 68% | 1013.7 hPa | 0 mm | - | - | - |
| 1788203554 | 18.89° C | 69% | 1013.7 hPa | 0 mm | - | - | - |
| 1788203253 | 18.89° C | 68% | 1013.8 hPa | 0 mm | - | - | - |
| 1788202954 | 18.89° C | 69% | 1013.8 hPa | 0 mm | - | - | - |
| 1788202653 | 18.89° C | 69% | 1013.8 hPa | 0 mm | - | - | - |
| 1788202353 | 18.89° C | 70% | 1013.7 hPa | 0 mm | - | - | - |
| 1788202053 | 18.89° C | 70% | 1013.7 hPa | 0 mm | - | - | - |
| 1788201453 | 18.33° C | 71% | 1013.7 hPa | 0 mm | - | - | - |
| 1788200802 | 18.33° C | 71% | 1013.8 hPa | 0 mm | - | - | - |
| 1788200502 | 18.33° C | 71% | 1013.8 hPa | 0 mm | - | - | - |
* Rain latest hour (hover to see other rain measurements)
** Current wind speed in m/s (hover to see current wind gust speed)